Regional Weather Roundup
Issued by NWS

Home | Current Version | Previous Version | Graphics & Text | Print | Product List | Glossary Off
Versions: 1 2 3 4 5 6 7 8 9 10 11 12 13 14 15 16 17 18 19 20 21 22 23 24 25 26 27 28 29 30 31 32 33 34 35 36 37 38 39 40 41 42 43 44 45 46 47 48 49 50

000
ASUS43 KDMX 250508
RWRIA

WEATHER ROUNDUP FOR IOWA
NATIONAL WEATHER SERVICE DES MOINES IA
1200 AM CDT THU AUG 25 2016

NOTE: "FAIR" INDICATES FEW OR NO CLOUDS BELOW 12,000 FEET WITH NO
SIGNIFICANT WEATHER AND/OR OBSTRUCTIONS TO VISIBILITY.

* - THESE STATIONS ARE NOT NWS STATIONS...THUS NOT UNDER NWS
QUALITY CONTROL.  THEY ALSO DO NOT REPORT WEATHER SUCH
AS PRECIPITATION OR FOG.

IAZ001>003-012>014-020>022-031>034-043>046-250600-
   NORTHWEST IOWA

CITY           SKY/WX    TMP DP  RH WIND       PRES   REMARKS
CARROLL *      PTCLDY    64  63  94 NW3       30.05R
CHEROKEE *     CLEAR     63  61  93 N3        30.07F
DENISON *      MOCLDY    64  63  94 N3        30.04S
LE MARS *      CLEAR     61  59  94 CALM      30.09S
ORANGE CITY *  CLEAR     59  57  94 NW6       30.08F
SHELDON *      CLEAR     59  59 100 W6        30.07S
SPENCER        CLEAR     59  56  89 CALM      30.07S
STORM LAKE *   CLEAR     63  59  88 NW12      30.07S
$$

IAZ055>058-069>071-079>083-090>094-250600-
   SOUTHWEST IOWA

CITY           SKY/WX    TMP DP  RH WIND       PRES   REMARKS
ATLANTIC *     CLOUDY    68  66  94 N5        30.04F
AUDUBON *      CLOUDY    66  63  88 CALM      30.06S
CLARINDA *       N/A     68  66  94 MISG      30.06R
COUNCIL BLFS * LGT RAIN  64  63  94 N6        30.06S
CRESTON *      CLOUDY    68  64  88 NW6       30.05R
HARLAN  *      PTCLDY    63  63 100 N6        30.08F
LAMONI         CLOUDY    68  68 100 CALM      30.02S
RED OAK *      CLOUDY    66  64  94 N3        30.04F
SHENANDOAH *   PTCLDY    66 N/A N/A N3        30.05R
$$

IAZ047>049-059>061-072>074-084-250600-
   CENTRAL IOWA

CITY           SKY/WX    TMP DP  RH WIND       PRES   REMARKS
AMES           CLOUDY    69  66  90 N5        30.01R
ANKENY *         N/A    N/A N/A N/A MISG        N/A
BOONE *        CLOUDY    68  64  88 NW10      30.01S
CHARITON *       N/A     68  68 100 MISG      30.01S
DES MOINES     CLOUDY    71  69  93 NW6       30.01R
GRINNELL*      FOG       69  68  96 CALM      30.01F VSB 1/2
KNOXVILLE *    CLOUDY    68  66  94 S5        30.00S
MARSHALLTOWN   CLOUDY    68  66  93 NE3       29.99F
NEWTON *       CLOUDY    70  70 100 CALM      30.00S
PELLA *        CLOUDY    68  67  97 CALM      30.01F FOG
PERRY *        CLOUDY    68  67  97 NW5       30.04R
$$

IAZ004>006-015-016-023>025-035-036-250600-
   NORTH CENTRAL IOWA

CITY           SKY/WX    TMP DP  RH WIND       PRES   REMARKS
ALGONA *       PTCLDY    64  61  88 NW8       30.05S
FORT DODGE *   CLOUDY    66  61  82 NW3       30.04S
MASON CITY     CLOUDY    65  61  87 NW8       30.04F
FOREST CITY *    N/A    N/A N/A N/A MISG        N/A
WEBSTER CITY * CLOUDY    64  64 100 NW6       30.02R
IOWA FALLS *     N/A     65  61  86 NW3       30.03S
$$

IAZ007>011-017>019-026>030-037>042-050>054-066-250600-
   NORTHEAST IOWA

CITY           SKY/WX    TMP DP  RH WIND       PRES   REMARKS
CHARLES CITY * CLOUDY    66  64  94 N5        30.01F
CLINTON *      CLOUDY    72  72 100 CALM      29.97S
DECORAH *      CLOUDY    66  63  88 NW3       30.00S
DUBUQUE        MOCLDY    73  71  93 N6        29.99R
MONTICELLO *   CLOUDY    73  72  94 NW5       29.98R
OELWEIN *      CLOUDY    68  64  88 N7        30.00S
WATERLOO       CLOUDY    68  62  81 NW8       29.99S
$$

IAZ064-065-067-068-078-250600-
   EAST CENTRAL IOWA

CITY           SKY/WX    TMP DP  RH WIND       PRES   REMARKS
MT. PLEASANT * RAIN      71  71 100 SW6       30.02R
MUSCATINE *    CLOUDY    72  70  94 NW5       29.98R
$$

IAZ062-063-075>077-085>089-095>099-250600-
   SOUTHEAST IOWA

CITY           SKY/WX    TMP DP  RH WIND       PRES   REMARKS
BURLINGTON     LGT RAIN  75  75 100 S10       30.00R
FAIRFIELD *    CLOUDY    68  66  94 W5        30.02R
FORT MADISON * RAIN      73  73 100 SW7       30.04R
KEOKUK *       LGT RAIN  75  75 100 W8        30.02R
OSKALOOSA *    MOCLDY    67  66  97 CALM      30.01F
CENTERVILLE *    N/A     68  68 100 CALM      30.04S
OTTUMWA        LGT RAIN  67  66  97 CALM      30.01R
WASHINGTON *   CLOUDY    68  68 100 W7        30.01S
$$

ABBREVIATIONS USED IN REMARKS
   TC - TEMPERATURES IN CELSIUS
  WCI - WIND CHILL INDEX
   HX - HEAT INDEX
  VSB - VISIBILITY
$$





USA.gov is the U.S. government's official web portal to all federal, state and local government web resources and services.